,,Stat6,,Stat2,,Stat8,,Stat9,,Stat10,,Wind1,,Wind1,
time,status,PA1M_AVG,status,PR1M_SUM,status,RH1M_AVG,status,SR1M_AVG,status,TA1M_AVG,status,W1dAve1m,status,W1sAve1m,
2008-07-07, 00:00:00,VALID,916.043,VALID,0,VALID,96.7755,VALID,-0.0509425,VALID,20.8775,VALID,155,VALID,0,
2008-07-07, 00:01:00,VALID,916.02,VALID,0,VALID,96.778,VALID,-0.101885,VALID,20.8707,VALID,155,VALID,0.00674716,
2008-07-07, 00:02:00,VALID,915.991,VALID,0,VALID,96.7895,VALID,-0.0849042,VALID,20.864,VALID,155,VALID,0.0146484,
2008-07-07, 00:03:00,VALID,915.981,VALID,0,VALID,96.7615,VALID,-0.0509425,VALID,20.8542,VALID,145,VALID,0,
2008-07-07, 00:04:00,VALID,915.977,VALID,0,VALID,96.7844,VALID,-0.0509425,VALID,20.8058,VALID,134,VALID,0,
2008-07-07, 00:05:00,VALID,915.943,VALID,0,VALID,96.9395,VALID,-0.0679233,VALID,20.7536,VALID,122,VALID,0.143787,
2008-07-07, 00:06:00,VALID,915.912,VALID,0,VALID,97.2739,VALID,-0.101885,VALID,20.7146,VALID,116,VALID,0.9125,
2008-07-07, 00:07:00,VALID,915.907,VALID,0,VALID,97.4431,VALID,-0.0849042,VALID,20.6792,VALID,111,VALID,1.06016,
2008-07-07, 00:08:00,VALID,915.886,VALID,0,VALID,97.5817,VALID,-0.0509425,VALID,20.6395,VALID,110,VALID,0.709985,
2008-07-07, 00:09:00,VALID,915.863,VALID,0,VALID,97.6681,VALID,-0.0169808,VALID,20.626,VALID,107,VALID,0,
2008-07-07, 00:10:00,VALID,915.848,VALID,0,VALID,97.7012,VALID,0,VALID,20.606,VALID,112,VALID,0,
2008-07-07, 00:11:00,VALID,915.837,VALID,0,VALID,97.7457,VALID,-0.0169808,VALID,20.6062,VALID,107,VALID,0,
2008-07-07, 00:12:00,VALID,915.84,VALID,0,VALID,97.7215,VALID,0,VALID,20.5962,VALID,108,VALID,0,
2008-07-07, 00:13:00,VALID,915.837,VALID,0,VALID,97.6974,VALID,0,VALID,20.5965,VALID,108,VALID,0,
2008-07-07, 00:14:00,VALID,915.851,VALID,0,VALID,97.7088,VALID,0,VALID,20.5997,VALID,109,VALID,0,
2008-07-07, 00:15:00,VALID,915.859,VALID,0,VALID,97.6859,VALID,0.0169808,VALID,20.5965,VALID,109,VALID,0,
2008-07-07, 00:16:00,VALID,915.863,VALID,0,VALID,97.6732,VALID,-0.0169808,VALID,20.5965,VALID,109,VALID,0,
2008-07-07, 00:17:00,VALID,915.881,VALID,0,VALID,97.7851,VALID,0,VALID,20.596,VALID,109,VALID,0,
2008-07-07, 00:18:00,VALID,915.89,VALID,0,VALID,97.7775,VALID,0,VALID,20.6162,VALID,97,VALID,0,
2008-07-07, 00:19:00,VALID,915.878,VALID,0,VALID,97.6694,VALID,0.0169808,VALID,20.5673,VALID,96,VALID,0,
2008-07-07, 00:20:00,VALID,915.88,VALID,0,VALID,97.6872,VALID,0.0339617,VALID,20.5248,VALID,96,VALID,0,
2008-07-07, 00:21:00,VALID,915.862,VALID,0,VALID,97.6872,VALID,-0.0339617,VALID,20.4796,VALID,96,VALID,0,
2008-07-07, 00:22:00,VALID,915.853,VALID,0,VALID,97.7826,VALID,-0.0169808,VALID,20.4404,VALID,96,VALID,0,
2008-07-07, 00:23:00,VALID,915.852,VALID,0,VALID,97.911,VALID,0,VALID,20.4018,VALID,97,VALID,0,
2008-07-07, 00:24:00,VALID,915.841,VALID,0,VALID,98.1246,VALID,-0.0509425,VALID,20.3631,VALID,100,VALID,0,
2008-07-07, 00:25:00,VALID,915.828,VALID,0,VALID,98.4018,VALID,-0.0339617,VALID,20.3531,VALID,102,VALID,0,
2008-07-07, 00:26:00,VALID,915.798,VALID,0,VALID,98.5633,VALID,-0.0509425,VALID,20.3568,VALID,102,VALID,0,
2008-07-07, 00:27:00,VALID,915.78,VALID,0,VALID,98.6307,VALID,-0.0679233,VALID,20.3371,VALID,103,VALID,0,
2008-07-07, 00:28:00,VALID,915.774,VALID,0,VALID,98.8342,VALID,-0.0509425,VALID,20.3206,VALID,105,VALID,0,
2008-07-07, 00:29:00,VALID,915.755,VALID,0,VALID,98.927,VALID,-0.0849042,VALID,20.2984,VALID,105,VALID,0,
2008-07-07, 00:30:00,VALID,915.741,VALID,0,VALID,99.0682,VALID,-0.0169808,VALID,20.2627,VALID,106,VALID,0,
2008-07-07, 00:31:00,VALID,915.728,VALID,0,VALID,99.2284,VALID,-0.0679233,VALID,20.2235,VALID,106,VALID,0,
2008-07-07, 00:32:00,VALID,915.701,VALID,0,VALID,99.3772,VALID,-0.0169808,VALID,20.1716,VALID,106,VALID,0,
2008-07-07, 00:33:00,VALID,915.678,VALID,0,VALID,99.5997,VALID,-0.0679233,VALID,20.1259,VALID,110,VALID,0,
2008-07-07, 00:34:00,VALID,915.673,VALID,0,VALID,99.8299,VALID,-0.0339617,VALID,20.1037,VALID,131,VALID,0,
2008-07-07, 00:35:00,VALID,915.682,VALID,0,VALID,99.9832,VALID,-0.0339617,VALID,20.0677,VALID,132,VALID,0,
2008-07-07, 00:36:00,VALID,915.689,VALID,0,VALID,100,VALID,-0.0679233,VALID,20.0612,VALID,123,VALID,0,
2008-07-07, 00:37:00,VALID,915.688,VALID,0,VALID,100,VALID,-0.0509425,VALID,20.055,VALID,117,VALID,0,
2008-07-07, 00:38:00,VALID,915.69,VALID,0,VALID,100,VALID,-0.0509425,VALID,20.0518,VALID,117,VALID,0,
2008-07-07, 00:39:00,VALID,915.684,VALID,0,VALID,100,VALID,-0.0679233,VALID,20.0388,VALID,119,VALID,0,
2008-07-07, 00:40:00,VALID,915.681,VALID,0,VALID,99.9916,VALID,-0.0169808,VALID,20.0156,VALID,136,VALID,0,
2008-07-07, 00:41:00,VALID,915.657,VALID,0,VALID,99.9969,VALID,-0.0509425,VALID,19.9896,VALID,137,VALID,0,
2008-07-07, 00:42:00,VALID,915.647,VALID,0,VALID,99.9954,VALID,-0.0339617,VALID,19.9771,VALID,131,VALID,0,
2008-07-07, 00:43:00,VALID,915.625,VALID,0,VALID,100,VALID,-0.0169808,VALID,19.9671,VALID,125,VALID,0,
2008-07-07, 00:44:00,VALID,915.608,VALID,0,VALID,100,VALID,-0.0339617,VALID,19.9701,VALID,130,VALID,0,
2008-07-07, 00:45:00,VALID,915.585,VALID,0,VALID,100,VALID,-0.0849042,VALID,19.9831,VALID,130,VALID,0,
2008-07-07, 00:46:00,VALID,915.568,VALID,0,VALID,100,VALID,-0.0339617,VALID,19.9961,VALID,131,VALID,0,
2008-07-07, 00:47:00,VALID,915.562,VALID,0,VALID,100,VALID,-0.0339617,VALID,20.0285,VALID,133,VALID,0,
2008-07-07, 00:48:00,VALID,915.545,VALID,0,VALID,99.9952,VALID,-0.0509425,VALID,20.0545,VALID,134,VALID,0.178234,
2008-07-07, 00:49:00,VALID,915.544,VALID,0,VALID,99.8858,VALID,-0.0169808,VALID,20.077,VALID,135,VALID,0.191679,
2008-07-07, 00:50:00,VALID,915.551,VALID,0,VALID,99.7803,VALID,-0.0169808,VALID,20.0932,VALID,132,VALID,0.239211,
2008-07-07, 00:51:00,VALID,915.537,VALID,0,VALID,99.6658,VALID,-0.0849042,VALID,20.0962,VALID,125,VALID,0.197173,
2008-07-07, 00:52:00,VALID,915.532,VALID,0,VALID,99.5209,VALID,-0.0339617,VALID,20.0902,VALID,118,VALID,0,
2008-07-07, 00:53:00,VALID,915.517,VALID,0,VALID,99.559,VALID,-0.0679233,VALID,20.055,VALID,120,VALID,0,
2008-07-07, 00:54:00,VALID,915.524,VALID,0,VALID,99.5883,VALID,-0.152827,VALID,20.0201,VALID,120,VALID,0,
2008-07-07, 00:55:00,VALID,915.517,VALID,0,VALID,99.9184,VALID,-0.101885,VALID,19.9976,VALID,120,VALID,0,
2008-07-07, 00:56:00,VALID,915.519,VALID,0,VALID,100,VALID,-0.118866,VALID,19.9679,VALID,111,VALID,0,
2008-07-07, 00:57:00,VALID,915.5,VALID,0,VALID,100,VALID,-0.135847,VALID,19.9035,VALID,95,VALID,0,
2008-07-07, 00:58:00,VALID,915.509,VALID,0,VALID,100,VALID,-0.101885,VALID,19.8321,VALID,92,VALID,0,
2008-07-07, 00:59:00,VALID,915.507,VALID,0,VALID,100,VALID,-0.101885,VALID,19.7732,VALID,92,VALID,0,
2008-07-07, 01:00:00,VALID,915.487,VALID,0,VALID,100,VALID,-0.135847,VALID,19.7345,VALID,96,VALID,0,
2008-07-07, 01:01:00,VALID,915.483,VALID,0,VALID,100,VALID,-0.101885,VALID,19.7085,VALID,105,VALID,0,
2008-07-07, 01:02:00,VALID,915.479,VALID,0,VALID,100,VALID,-0.101885,VALID,19.6693,VALID,108,VALID,0,
2008-07-07, 01:03:00,VALID,915.468,VALID,0,VALID,100,VALID,-0.152827,VALID,19.6501,VALID,111,VALID,0,
2008-07-07, 01:04:00,VALID,915.439,VALID,0,VALID,100,VALID,-0.101885,VALID,19.6366,VALID,112,VALID,0,
2008-07-07, 01:05:00,VALID,915.405,VALID,0,VALID,100,VALID,-0.118866,VALID,19.6204,VALID,109,VALID,0.922585,
2008-07-07, 01:06:00,VALID,915.385,VALID,0,VALID,100,VALID,-0.118866,VALID,19.6536,VALID,107,VALID,1.2609,
2008-07-07, 01:07:00,VALID,915.354,VALID,0,VALID,100,VALID,-0.101885,VALID,19.6466,VALID,108,VALID,1.2092,
2008-07-07, 01:08:00,VALID,915.344,VALID,0,VALID,100,VALID,-0.0849042,VALID,19.6272,VALID,112,VALID,1.04433,
2008-07-07, 01:09:00,VALID,915.329,VALID,0,VALID,100,VALID,0,VALID,19.6067,VALID,117,VALID,0.881722,
2008-07-07, 01:10:00,VALID,915.322,VALID,0,VALID,100,VALID,-0.0169808,VALID,19.6,VALID,124,VALID,0.755269,
2008-07-07, 01:11:00,VALID,915.309,VALID,0,VALID,100,VALID,-0.0339617,VALID,19.597,VALID,115,VALID,1.20332,
2008-07-07, 01:12:00,VALID,915.304,VALID,0,VALID,100,VALID,-0.0339617,VALID,19.5935,VALID,126,VALID,0.686738,
2008-07-07, 01:13:00,VALID,915.289,VALID,0,VALID,100,VALID,-0.0509425,VALID,19.5937,VALID,132,VALID,0.0191406,
2008-07-07, 01:14:00,VALID,915.293,VALID,0,VALID,100,VALID,-0.0339617,VALID,19.5937,VALID,147,VALID,0.00093006,
2008-07-07, 01:15:00,VALID,915.278,VALID,0,VALID,100,VALID,-0.0169808,VALID,19.5937,VALID,157,VALID,0.0316051,
2008-07-07, 01:16:00,VALID,915.273,VALID,0,VALID,100,VALID,-0.0509425,VALID,19.6,VALID,161,VALID,0.0541548,
2008-07-07, 01:17:00,VALID,915.257,VALID,0,VALID,100,VALID,-0.0339617,VALID,19.6035,VALID,157,VALID,0.28125,
2008-07-07, 01:18:00,VALID,915.266,VALID,0,VALID,100,VALID,-0.0509425,VALID,19.597,VALID,139,VALID,0.668968,
2008-07-07, 01:19:00,VALID,915.268,VALID,0,VALID,100,VALID,0,VALID,19.5937,VALID,142,VALID,0.168155,
2008-07-07, 01:20:00,VALID,915.268,VALID,0,VALID,100,VALID,-0.0339617,VALID,19.5805,VALID,147,VALID,0.0362043,
2008-07-07, 01:21:00,VALID,915.272,VALID,0,VALID,100,VALID,0,VALID,19.5872,VALID,151,VALID,0.560764,
2008-07-07, 01:22:00,VALID,915.27,VALID,0,VALID,100,VALID,0,VALID,19.5862,VALID,154,VALID,0.246449,
2008-07-07, 01:23:00,VALID,915.261,VALID,0,VALID,100,VALID,-0.0509425,VALID,19.5902,VALID,121,VALID,0.117018,
2008-07-07, 01:24:00,VALID,915.234,VALID,0,VALID,100,VALID,-0.101885,VALID,19.5755,VALID,118,VALID,0.218568,
2008-07-07, 01:25:00,VALID,915.232,VALID,0,VALID,100,VALID,-0.0849042,VALID,19.5623,VALID,124,VALID,0.236793,
2008-07-07, 01:26:00,VALID,915.21,VALID,0,VALID,100,VALID,-0.0679233,VALID,19.5528,VALID,128,VALID,0,
2008-07-07, 01:27:00,VALID,915.195,VALID,0,VALID,100,VALID,-0.101885,VALID,19.5623,VALID,139,VALID,0.291371,
2008-07-07, 01:28:00,VALID,915.203,VALID,0,VALID,100,VALID,-0.0509425,VALID,19.5815,VALID,132,VALID,0.960742,
2008-07-07, 01:29:00,VALID,915.2,VALID,0,VALID,100,VALID,-0.0849042,VALID,19.6042,VALID,139,VALID,0.556868,
2008-07-07, 01:30:00,VALID,915.197,VALID,0,VALID,100,VALID,-0.0849042,VALID,19.6269,VALID,133,VALID,0.0838914,
2008-07-07, 01:31:00,VALID,915.197,VALID,0,VALID,100,VALID,-0.0679233,VALID,19.6496,VALID,125,VALID,0.805664,
2008-07-07, 01:32:00,VALID,915.208,VALID,0,VALID,100,VALID,-0.0509425,VALID,19.6878,VALID,132,VALID,0.945499,
2008-07-07, 01:33:00,VALID,915.225,VALID,0,VALID,100,VALID,0.0509425,VALID,19.7323,VALID,136,VALID,0.93407,
2008-07-07, 01:34:00,VALID,915.251,VALID,0,VALID,100,VALID,0.0169808,VALID,19.7585,VALID,131,VALID,0.960742,
2008-07-07, 01:35:00,VALID,915.262,VALID,0,VALID,99.9914,VALID,0.0679233,VALID,19.7837,VALID,140,VALID,0.923611,
2008-07-07, 01:36:00,VALID,915.267,VALID,0,VALID,99.9692,VALID,0.0339617,VALID,19.8229,VALID,152,VALID,0.954459,
2008-07-07, 01:37:00,VALID,915.25,VALID,0,VALID,99.7358,VALID,-0.0169808,VALID,19.879,VALID,132,VALID,1.11347,
2008-07-07, 01:38:00,VALID,915.224,VALID,0,VALID,99.4865,VALID,-0.0339617,VALID,19.892,VALID,141,VALID,1.47708,
2008-07-07, 01:39:00,VALID,915.203,VALID,0,VALID,99.3835,VALID,-0.0849042,VALID,19.925,VALID,136,VALID,1.19774,
2008-07-07, 01:40:00,VALID,915.184,VALID,0,VALID,99.306,VALID,-0.0849042,VALID,19.9609,VALID,138,VALID,1.70238,
2008-07-07, 01:41:00,VALID,915.176,VALID,0,VALID,99.0084,VALID,-0.101885,VALID,20.0026,VALID,136,VALID,1.59375,
2008-07-07, 01:42:00,VALID,915.163,VALID,0,VALID,98.8189,VALID,-0.0849042,VALID,20.039,VALID,139,VALID,1.26882,
2008-07-07, 01:43:00,VALID,915.164,VALID,0,VALID,98.6752,VALID,-0.0849042,VALID,20.042,VALID,142,VALID,1.59375,
2008-07-07, 01:44:00,VALID,915.156,VALID,0,VALID,98.6193,VALID,-0.0509425,VALID,20.0615,VALID,143,VALID,1.35429,
2008-07-07, 01:45:00,VALID,915.16,VALID,0,VALID,98.4959,VALID,-0.0849042,VALID,20.0812,VALID,144,VALID,1.57533,
2008-07-07, 01:46:00,VALID,915.148,VALID,0,VALID,98.4603,VALID,-0.101885,VALID,20.0845,VALID,146,VALID,1.57649,
2008-07-07, 01:47:00,VALID,915.15,VALID,0,VALID,98.4565,VALID,-0.101885,VALID,20.0875,VALID,141,VALID,1.57304,
2008-07-07, 01:48:00,VALID,915.152,VALID,0,VALID,98.4158,VALID,-0.0679233,VALID,20.1099,VALID,144,VALID,0.592448,
2008-07-07, 01:49:00,VALID,915.172,VALID,0,VALID,98.384,VALID,-0.101885,VALID,20.1269,VALID,151,VALID,1.36137,
2008-07-07, 01:50:00,VALID,915.201,VALID,0,VALID,98.2887,VALID,-0.0509425,VALID,20.1431,VALID,151,VALID,1.26225,
2008-07-07, 01:51:00,VALID,915.21,VALID,0,VALID,98.3357,VALID,-0.101885,VALID,20.1591,VALID,150,VALID,1.41921,
2008-07-07, 01:52:00,VALID,915.224,VALID,0,VALID,98.206,VALID,-0.101885,VALID,20.1686,VALID,152,VALID,0.263719,
2008-07-07, 01:53:00,VALID,915.239,VALID,0,VALID,98.1234,VALID,-0.101885,VALID,20.1918,VALID,150,VALID,0.21733,
2008-07-07, 01:54:00,VALID,915.231,VALID,0,VALID,98.0763,VALID,-0.101885,VALID,20.1751,VALID,148,VALID,0.121484,
2008-07-07, 01:55:00,VALID,915.213,VALID,0,VALID,98.0051,VALID,-0.101885,VALID,20.1683,VALID,139,VALID,0.176314,
2008-07-07, 01:56:00,VALID,915.209,VALID,0,VALID,98.0776,VALID,-0.0849042,VALID,20.1626,VALID,132,VALID,1.4133,
2008-07-07, 01:57:00,VALID,915.195,VALID,0,VALID,98.0852,VALID,-0.0679233,VALID,20.1661,VALID,130,VALID,1.10733,
2008-07-07, 01:58:00,VALID,915.177,VALID,0,VALID,98.0483,VALID,-0.0679233,VALID,20.1559,VALID,130,VALID,1.24275,
2008-07-07, 01:59:00,VALID,915.149,VALID,0,VALID,98.117,VALID,-0.0509425,VALID,20.1391,VALID,136,VALID,0.40298,
2008-07-07, 02:00:00,VALID,915.124,VALID,0,VALID,98.1285,VALID,-0.0849042,VALID,20.1337,VALID,122,VALID,0.0414063,
2008-07-07, 02:01:00,VALID,915.085,VALID,0,VALID,98.0903,VALID,-0.101885,VALID,20.0877,VALID,119,VALID,0.212054,
2008-07-07, 02:02:00,VALID,915.054,VALID,0,VALID,98.2137,VALID,-0.0509425,VALID,20.0647,VALID,122,VALID,0.962054,
2008-07-07, 02:03:00,VALID,915.021,VALID,0,VALID,98.3319,VALID,-0.0679233,VALID,20.0423,VALID,131,VALID,1.48926,
2008-07-07, 02:04:00,VALID,915.008,VALID,0,VALID,98.384,VALID,-0.101885,VALID,20.0358,VALID,138,VALID,0.72894,
2008-07-07, 02:05:00,VALID,914.989,VALID,0,VALID,98.4794,VALID,-0.0849042,VALID,20.0228,VALID,123,VALID,0.514382,
2008-07-07, 02:06:00,VALID,914.963,VALID,0,VALID,98.5023,VALID,-0.101885,VALID,20.0096,VALID,125,VALID,0.372569,
2008-07-07, 02:07:00,VALID,914.958,VALID,0,VALID,98.4502,VALID,-0.0509425,VALID,19.9869,VALID,121,VALID,0.873757,
2008-07-07, 02:08:00,VALID,914.955,VALID,0,VALID,98.5405,VALID,-0.101885,VALID,19.9711,VALID,120,VALID,1.11797,
2008-07-07, 02:09:00,VALID,914.957,VALID,0,VALID,98.6409,VALID,-0.0849042,VALID,19.9477,VALID,135,VALID,1.03145,
2008-07-07, 02:10:00,VALID,914.932,VALID,0,VALID,98.7096,VALID,-0.0849042,VALID,19.9247,VALID,129,VALID,1.09226,
2008-07-07, 02:11:00,VALID,914.926,VALID,0,VALID,98.7986,VALID,-0.101885,VALID,19.9155,VALID,130,VALID,1.0696,
2008-07-07, 02:12:00,VALID,914.887,VALID,0,VALID,98.9474,VALID,-0.0509425,VALID,19.9057,VALID,132,VALID,1.51963,
2008-07-07, 02:13:00,VALID,914.851,VALID,0,VALID,98.9029,VALID,-0.101885,VALID,19.9092,VALID,135,VALID,1.52604,
2008-07-07, 02:14:00,VALID,914.815,VALID,0,VALID,98.983,VALID,-0.101885,VALID,19.8798,VALID,135,VALID,1.61937,
2008-07-07, 02:15:00,VALID,914.761,VALID,0,VALID,99.1076,VALID,-0.0679233,VALID,19.8571,VALID,139,VALID,1.73692,
2008-07-07, 02:16:00,VALID,914.732,VALID,0,VALID,99.3098,VALID,-0.0679233,VALID,19.8438,VALID,136,VALID,1.84872,
2008-07-07, 02:17:00,VALID,914.69,VALID,0,VALID,99.4229,VALID,-0.0849042,VALID,19.8144,VALID,144,VALID,1.51544,
2008-07-07, 02:18:00,VALID,914.653,VALID,0,VALID,99.5323,VALID,-0.0849042,VALID,19.8119,VALID,135,VALID,1.79334,
2008-07-07, 02:19:00,VALID,914.633,VALID,0,VALID,99.6277,VALID,-0.0339617,VALID,19.7981,VALID,139,VALID,1.59766,
2008-07-07, 02:20:00,VALID,914.606,VALID,0,VALID,99.7345,VALID,-0.0679233,VALID,19.8016,VALID,135,VALID,1.7293,
2008-07-07, 02:21:00,VALID,914.601,VALID,0,VALID,99.7726,VALID,-0.101885,VALID,19.7984,VALID,142,VALID,1.69364,
2008-07-07, 02:22:00,VALID,914.593,VALID,0,VALID,99.7892,VALID,-0.0849042,VALID,19.7914,VALID,135,VALID,1.55178,
2008-07-07, 02:23:00,VALID,914.6,VALID,0,VALID,99.8006,VALID,-0.0509425,VALID,19.8176,VALID,128,VALID,1.77788,
2008-07-07, 02:24:00,VALID,914.581,VALID,0,VALID,99.6836,VALID,-0.0679233,VALID,19.8371,VALID,139,VALID,1.6,
2008-07-07, 02:25:00,VALID,914.576,VALID,0,VALID,99.615,VALID,-0.0509425,VALID,19.8695,VALID,132,VALID,1.65191,
2008-07-07, 02:26:00,VALID,914.57,VALID,0,VALID,99.4484,VALID,-0.0339617,VALID,19.9055,VALID,133,VALID,1.72765,
2008-07-07, 02:27:00,VALID,914.579,VALID,0,VALID,99.2971,VALID,-0.0339617,VALID,19.9442,VALID,148,VALID,2.17634,
2008-07-07, 02:28:00,VALID,914.578,VALID,0,VALID,99.0109,VALID,-0.0169808,VALID,20.0193,VALID,145,VALID,1.51563,
2008-07-07, 02:29:00,VALID,914.6,VALID,0,VALID,98.6905,VALID,-0.0169808,VALID,20.0675,VALID,141,VALID,1.5651,
2008-07-07, 02:30:00,VALID,914.594,VALID,0,VALID,98.3675,VALID,-0.0169808,VALID,20.1227,VALID,145,VALID,1.34211,
2008-07-07, 02:31:00,VALID,914.605,VALID,0,VALID,98.0547,VALID,-0.0509425,VALID,20.1681,VALID,136,VALID,1.47008,
2008-07-07, 02:32:00,VALID,914.609,VALID,0,VALID,97.7546,VALID,-0.0509425,VALID,20.2203,VALID,135,VALID,1.22763,
2008-07-07, 02:33:00,VALID,914.609,VALID,0,VALID,97.4558,VALID,-0.0509425,VALID,20.2525,VALID,132,VALID,1.48457,
2008-07-07, 02:34:00,VALID,914.623,VALID,0,VALID,97.1938,VALID,-0.0169808,VALID,20.2982,VALID,132,VALID,1.34618,
2008-07-07, 02:35:00,VALID,914.625,VALID,0,VALID,96.9904,VALID,-0.0509425,VALID,20.3106,VALID,141,VALID,0.981957,
2008-07-07, 02:36:00,VALID,914.627,VALID,0,VALID,96.8047,VALID,-0.0679233,VALID,20.3306,VALID,149,VALID,1.17402,
2008-07-07, 02:37:00,VALID,914.636,VALID,0,VALID,96.6585,VALID,-0.0679233,VALID,20.3239,VALID,147,VALID,1.07138,
2008-07-07, 02:38:00,VALID,914.643,VALID,0,VALID,96.5364,VALID,-0.0849042,VALID,20.3309,VALID,150,VALID,1.30469,
2008-07-07, 02:39:00,VALID,914.636,VALID,0,VALID,96.3609,VALID,-0.0509425,VALID,20.3309,VALID,143,VALID,1.81486,
2008-07-07, 02:40:00,VALID,914.627,VALID,0,VALID,96.1969,VALID,-0.0509425,VALID,20.3468,VALID,151,VALID,1.41543,
2008-07-07, 02:41:00,VALID,914.639,VALID,0,VALID,96.057,VALID,-0.0849042,VALID,20.3631,VALID,152,VALID,0.2,
2008-07-07, 02:42:00,VALID,914.628,VALID,0,VALID,95.9591,VALID,-0.0339617,VALID,20.3693,VALID,149,VALID,1.48964,
2008-07-07, 02:43:00,VALID,914.639,VALID,0,VALID,95.9578,VALID,-0.0509425,VALID,20.3531,VALID,141,VALID,1.19315,
2008-07-07, 02:44:00,VALID,914.62,VALID,0,VALID,95.9133,VALID,-0.0849042,VALID,20.3501,VALID,141,VALID,1.15149,
2008-07-07, 02:45:00,VALID,914.611,VALID,0,VALID,95.8561,VALID,-0.0849042,VALID,20.3598,VALID,146,VALID,1.14933,
2008-07-07, 02:46:00,VALID,914.598,VALID,0,VALID,95.7417,VALID,-0.0339617,VALID,20.3666,VALID,142,VALID,1.62574,
2008-07-07, 02:47:00,VALID,914.595,VALID,0,VALID,95.5611,VALID,-0.0169808,VALID,20.379,VALID,140,VALID,1.22123,
2008-07-07, 02:48:00,VALID,914.568,VALID,0,VALID,95.3869,VALID,-0.0849042,VALID,20.4058,VALID,155,VALID,1.13467,
2008-07-07, 02:49:00,VALID,914.556,VALID,0,VALID,95.2915,VALID,-0.0339617,VALID,20.4215,VALID,140,VALID,0.304324,
2008-07-07, 02:50:00,VALID,914.528,VALID,0,VALID,95.1758,VALID,-0.0339617,VALID,20.4282,VALID,166,VALID,0.714935,
2008-07-07, 02:51:00,VALID,914.526,VALID,0,VALID,95.0957,VALID,-0.0849042,VALID,20.4352,VALID,143,VALID,0.880087,
2008-07-07, 02:52:00,VALID,914.512,VALID,0,VALID,95.0842,VALID,-0.0849042,VALID,20.4377,VALID,144,VALID,0.257241,
2008-07-07, 02:53:00,VALID,914.508,VALID,0,VALID,95.0804,VALID,-0.0339617,VALID,20.4342,VALID,180,VALID,0.476199,
2008-07-07, 02:54:00,VALID,914.499,VALID,0,VALID,95.0944,VALID,0.0509425,VALID,20.4297,VALID,183,VALID,0,
2008-07-07, 02:55:01,VALID,914.492,VALID,0,VALID,95.0995,VALID,0.0339617,VALID,20.4169,VALID,147,VALID,0.700838,
2008-07-07, 02:56:00,VALID,914.489,VALID,0,VALID,95.186,VALID,0,VALID,20.4047,VALID,156,VALID,1.0997,
2008-07-07, 02:57:00,VALID,914.495,VALID,0,VALID,95.1605,VALID,0.0169808,VALID,20.3905,VALID,165,VALID,0.129573,
2008-07-07, 02:58:01,VALID,914.487,VALID,0,VALID,95.0613,VALID,-0.0169808,VALID,20.407,VALID,167,VALID,0.009375,
2008-07-07, 02:59:00,VALID,914.465,VALID,0,VALID,94.9596,VALID,0.0339617,VALID,20.4267,VALID,141,VALID,0.078497,
2008-07-07, 03:00:00,VALID,914.455,VALID,0,VALID,94.8731,VALID,0.0339617,VALID,20.4399,VALID,164,VALID,0.36814,
2008-07-07, 03:01:00,VALID,914.442,VALID,0,VALID,94.8108,VALID,0.0169808,VALID,20.4432,VALID,161,VALID,0.456364,
2008-07-07, 03:02:00,VALID,914.446,VALID,0,VALID,94.5959,VALID,0,VALID,20.4564,VALID,149,VALID,0.799665,
2008-07-07, 03:03:00,VALID,914.443,VALID,0,VALID,94.2386,VALID,0,VALID,20.5121,VALID,155,VALID,0.970656,
2008-07-07, 03:04:00,VALID,914.46,VALID,0,VALID,93.8775,VALID,0,VALID,20.5568,VALID,151,VALID,0.567894,
2008-07-07, 03:05:00,VALID,914.477,VALID,0,VALID,93.6435,VALID,0.0509425,VALID,20.5987,VALID,130,VALID,0.000952744,
2008-07-07, 03:06:00,VALID,914.495,VALID,0,VALID,93.5138,VALID,0,VALID,20.6119,VALID,134,VALID,0.527344,
2008-07-07, 03:07:01,VALID,914.496,VALID,0,VALID,93.4477,VALID,0.0169808,VALID,20.6282,VALID,125,VALID,0.186458,
2008-07-07, 03:08:01,VALID,914.505,VALID,0,VALID,93.4184,VALID,-0.0509425,VALID,20.6252,VALID,141,VALID,0,
2008-07-07, 03:09:00,VALID,914.518,VALID,0,VALID,93.3345,VALID,-0.0169808,VALID,20.6287,VALID,168,VALID,0,
2008-07-07, 03:10:01,VALID,914.524,VALID,0,VALID,93.3777,VALID,-0.0339617,VALID,20.6284,VALID,152,VALID,0.078497,
2008-07-07, 03:11:01,VALID,914.518,VALID,0,VALID,93.4019,VALID,-0.0169808,VALID,20.606,VALID,133,VALID,0,
2008-07-07, 03:12:00,VALID,914.535,VALID,0,VALID,93.5621,VALID,-0.0169808,VALID,20.5765,VALID,133,VALID,0,
2008-07-07, 03:13:00,VALID,914.541,VALID,0,VALID,93.6626,VALID,-0.0339617,VALID,20.5505,VALID,133,VALID,0,
2008-07-07, 03:14:01,VALID,914.548,VALID,0,VALID,93.819,VALID,0,VALID,20.5213,VALID,147,VALID,0.615663,
2008-07-07, 03:15:00,VALID,914.548,VALID,0,VALID,94.0135,VALID,-0.0169808,VALID,20.4991,VALID,154,VALID,1.06658,
2008-07-07, 03:16:01,VALID,914.54,VALID,0,VALID,94.0339,VALID,-0.0169808,VALID,20.4883,VALID,152,VALID,0.0584162,
2008-07-07, 03:17:00,VALID,914.54,VALID,0,VALID,94.0568,VALID,0,VALID,20.4791,VALID,151,VALID,0,
2008-07-07, 03:18:00,VALID,914.521,VALID,0,VALID,94.1102,VALID,-0.0339617,VALID,20.4794,VALID,148,VALID,0,
2008-07-07, 03:19:01,VALID,914.511,VALID,0,VALID,94.0224,VALID,0,VALID,20.4986,VALID,145,VALID,0,
2008-07-07, 03:20:00,VALID,914.517,VALID,0,VALID,93.8838,VALID,-0.0169808,VALID,20.4916,VALID,164,VALID,0,
2008-07-07, 03:21:00,VALID,914.511,VALID,0,VALID,93.8686,VALID,0.0169808,VALID,20.4691,VALID,156,VALID,0,
2008-07-07, 03:22:01,VALID,914.51,VALID,0,VALID,93.9728,VALID,-0.0339617,VALID,20.4462,VALID,159,VALID,0,
2008-07-07, 03:23:00,VALID,914.518,VALID,0,VALID,93.9233,VALID,0,VALID,20.4594,VALID,159,VALID,0,
2008-07-07, 03:24:00,VALID,914.534,VALID,0,VALID,93.8279,VALID,-0.0169808,VALID,20.4796,VALID,164,VALID,0,
2008-07-07, 03:25:00,VALID,914.527,VALID,0,VALID,93.8444,VALID,0,VALID,20.4661,VALID,167,VALID,0,
2008-07-07, 03:26:00,VALID,914.539,VALID,0,VALID,93.8609,VALID,-0.0339617,VALID,20.4429,VALID,168,VALID,0,
2008-07-07, 03:27:00,VALID,914.539,VALID,0,VALID,93.9474,VALID,0,VALID,20.4237,VALID,167,VALID,0,
2008-07-07, 03:28:01,VALID,914.537,VALID,0,VALID,94.0619,VALID,-0.0339617,VALID,20.401,VALID,173,VALID,0.304332,
2008-07-07, 03:29:00,VALID,914.54,VALID,0,VALID,94.2373,VALID,0,VALID,20.3615,VALID,169,VALID,1.05357,
2008-07-07, 03:30:01,VALID,914.533,VALID,0,VALID,94.306,VALID,0,VALID,20.342,VALID,163,VALID,0.000976563,
2008-07-07, 03:31:00,VALID,914.539,VALID,0,VALID,94.3912,VALID,-0.0169808,VALID,20.3431,VALID,160,VALID,0,
2008-07-07, 03:32:00,VALID,914.541,VALID,0,VALID,94.4484,VALID,0,VALID,20.3099,VALID,168,VALID,0,
2008-07-07, 03:33:00,VALID,914.527,VALID,0,VALID,94.5921,VALID,-0.0169808,VALID,20.2934,VALID,174,VALID,0,
2008-07-07, 03:34:00,VALID,914.518,VALID,0,VALID,94.5858,VALID,0,VALID,20.3071,VALID,178,VALID,0,
2008-07-07, 03:35:00,VALID,914.521,VALID,0,VALID,94.4522,VALID,-0.0169808,VALID,20.3169,VALID,173,VALID,0,
2008-07-07, 03:36:00,VALID,914.515,VALID,0,VALID,94.4294,VALID,-0.0169808,VALID,20.3001,VALID,183,VALID,0,